GFSSW_925_rhum_114.txt.gz
RH
93 99 97 89 81 83 87 89 84 80 80 77 92 99 97 90 88 90 93 59 50 58 49 47 40 40 41 52 52 53 75 78 64 76 50 47 49 40 36 36 33 29 25 34 26
91 95 95 97 90 92 95 84 88 83 79 83 88 99 96 80 89 85 66 75 70 62 41 42 48 44 59 52 60 61 66 60 58 54 50 51 50 49 46 42 40 34 29 25 24
89 97 95 95 88 92 96 96 96 88 81 70 84 97 93 78 78 71 66 83 77 60 48 43 44 49 59 53 59 69 65 63 52 49 52 54 52 45 45 50 45 40 32 34 29
85 91 80 87 88 93 95 97 94 95 80 66 86 100 93 79 78 60 76 75 66 48 44 46 53 59 63 58 61 60 60 60 58 58 65 65 55 61 51 46 39 37 35 37 40
90 89 78 92 90 91 96 94 96 90 84 73 83 100 80 89 72 73 82 78 55 45 48 58 62 63 67 69 63 68 67 66 63 68 67 64 68 66 60 48 45 45 44 49 49
86 89 88 91 92 92 94 94 82 90 88 78 77 94 89 88 72 78 78 67 50 48 55 53 59 59 73 73 68 74 76 75 70 70 67 70 67 61 59 52 52 50 50 49 51
90 91 91 91 91 94 83 89 91 92 66 89 87 88 91 93 80 72 68 59 52 51 64 57 52 60 65 70 71 75 83 78 68 68 70 70 72 77 55 51 54 50 48 49 53
91 95 97 96 93 90 90 83 71 55 50 83 94 88 97 92 81 68 52 54 52 52 56 55 51 67 67 70 65 84 75 79 52 70 60 56 75 50 48 54 57 53 47 48 51
92 83 95 89 92 74 75 95 69 84 95 91 86 83 98 92 87 77 51 60 58 61 63 56 53 66 60 73 77 79 91 90 79 60 65 66 79 63 57 58 56 51 50 50 50
95 82 82 88 87 78 85 94 97 96 95 77 94 83 96 93 89 56 54 58 71 72 72 71 76 73 70 88 83 83 90 81 89 70 66 79 79 63 56 59 62 59 58 59 60
94 96 97 89 79 73 74 73 81 87 87 94 84 80 86 89 58 60 56 63 70 74 92 79 89 96 81 76 71 74 69 70 64 64 75 82 80 70 61 66 75 72 73 73 71
94 94 92 80 80 83 73 87 92 96 98 88 81 86 88 74 81 64 55 69 77 90 88 86 91 74 71 75 83 82 83 83 68 64 77 78 78 65 63 67 72 74 79 81 73
90 68 73 82 79 84 85 98 97 93 97 95 89 84 83 74 76 69 55 65 74 76 82 82 62 68 76 84 95 92 95 84 74 60 70 80 89 76 63 74 75 76 77 76 74
87 85 71 61 71 86 96 92 96 98 98 100 93 86 68 61 76 55 54 59 71 70 72 75 64 66 73 83 82 97 71 70 63 77 95 70 92 67 84 87 76 83 87 85 83
69 69 77 69 79 94 94 82 89 86 90 94 92 69 70 69 68 61 53 61 75 68 69 66 66 77 87 81 76 83 72 89 92 96 99 85 99 76 81 87 87 83 84 85 83
60 61 62 72 82 89 85 82 76 79 96 94 84 85 74 68 72 69 65 58 64 74 75 74 61 68 72 67 74 72 90 87 94 97 99 86 97 88 97 98 92 82 82 80 96
51 55 60 64 86 72 73 74 84 92 94 90 92 88 72 77 74 71 76 78 78 84 88 79 78 68 68 85 72 87 96 94 88 98 93 98 100 99 97 93 96 95 94 95 92
48 47 57 68 69 69 72 77 88 88 85 80 84 77 80 71 67 68 74 77 73 78 92 88 81 80 82 78 80 88 96 98 97 98 94 92 98 97 93 84 88 90 93 88 90
44 40 54 59 58 65 84 93 99 85 82 85 84 75 78 73 69 70 72 73 65 85 87 76 81 72 81 72 77 91 100 94 100 94 98 98 98 90 84 93 87 91 92 96 96
45 49 49 56 54 62 88 91 96 84 79 75 76 59 70 64 63 72 72 70 81 73 78 82 95 70 78 78 81 90 90 100 100 97 96 96 98 98 98 99 94 94 96 96 94
44 68 43 46 49 84 96 94 87 75 73 84 73 53 59 79 80 90 92 81 75 82 84 86 96 80 87 94 94 98 100 100 99 97 96 94 98 100 100 100 99 94 90 90 89
62 82 43 44 86 94 98 89 80 78 68 71 74 54 52 93 96 95 96 86 72 76 87 83 89 95 76 63 65 85 94 90 95 98 88 95 98 94 95 93 84 82 79 74 71
83 79 43 50 89 95 79 73 76 77 76 74 72 68 53 67 75 86 86 65 73 84 85 80 88 95 58 57 59 70 71 67 74 80 91 88 99 82 87 86 70 71 72 72 71
83 78 86 92 88 83 89 86 79 68 69 70 75 64 63 71 67 71 73 59 73 78 72 69 78 77 88 76 74 80 71 71 78 91 91 90 98 87 77 72 72 74 76 79 78
91 90 85 95 86 82 78 75 80 83 72 72 68 80 82 74 73 79 74 68 59 60 68 61 75 82 70 66 65 68 72 74 78 72 69 79 84 73 72 77 75 73 74 78 80
86 91 89 89 83 71 78 79 83 82 77 78 78 82 74 80 79 84 79 72 67 66 62 70 80 74 64 54 64 60 59 64 73 82 87 84 76 65 64 67 72 76 78 79 82
87 74 70 83 83 76 78 74 76 78 65 71 76 78 70 68 70 73 72 75 74 73 71 70 79 82 67 68 61 55 52 62 63 64 77 81 66 72 71 73 76 78 79 80 80

GFSSW_925_rhum_117.txt.gz
RH
86 98 91 96 94 83 82 87 92 88 82 82 89 99 100 96 95 95 84 59 61 57 52 45 41 40 40 55 54 54 58 57 51 63 44 46 45 38 38 37 32 29 26 27 27
95 98 91 99 96 89 87 83 80 84 87 77 74 95 100 94 77 86 64 72 74 54 49 41 47 43 56 54 61 58 48 46 52 57 50 51 50 46 43 40 38 34 29 25 24
86 98 94 95 90 91 89 92 97 90 86 80 77 90 96 84 62 62 70 80 70 48 44 40 42 49 58 54 62 66 52 57 52 50 55 53 50 44 47 46 40 34 31 30 34
78 80 74 84 84 87 91 85 86 97 80 76 84 99 96 73 86 62 73 86 73 47 41 44 51 56 62 62 62 51 59 61 57 59 64 61 56 56 49 38 32 34 34 37 38
86 85 86 84 89 92 93 89 84 84 86 78 72 100 87 88 80 73 86 66 48 45 47 53 59 58 65 71 62 63 68 65 63 65 64 60 62 57 56 44 40 42 44 45 47
88 90 91 92 93 90 95 93 80 82 89 80 78 98 77 89 84 86 80 53 46 45 53 52 58 59 72 74 63 73 74 72 67 66 64 64 61 62 50 50 49 49 48 47 49
89 93 96 93 94 95 83 85 86 83 88 90 96 81 80 97 98 86 61 49 47 47 63 54 52 58 64 74 70 72 71 69 64 65 68 68 72 76 50 52 50 46 44 46 49
90 93 95 86 93 95 88 79 73 74 68 71 93 78 93 100 94 79 53 55 52 51 53 52 50 67 65 66 64 77 68 57 49 64 61 57 60 48 45 52 50 48 46 45 41
91 96 95 92 74 75 77 77 71 83 96 93 85 75 98 99 92 59 53 61 62 60 59 54 51 64 63 74 66 72 71 83 73 60 67 68 71 57 51 48 51 50 49 48 49
93 97 77 81 85 88 94 84 87 77 70 70 80 85 93 97 86 62 61 59 71 66 69 68 76 78 76 76 49 82 87 76 80 65 64 73 76 61 56 55 55 53 54 54 56
94 95 81 78 72 85 80 72 80 85 84 83 83 86 89 86 70 64 62 61 66 70 90 78 82 81 72 72 65 76 73 78 67 58 72 77 76 62 56 58 61 64 68 66 66
68 79 93 85 79 71 76 93 100 88 98 88 85 90 93 79 73 60 53 74 75 96 83 78 84 70 68 74 79 84 91 86 69 64 74 70 67 58 60 63 67 68 70 72 70
65 67 75 72 77 79 100 99 99 92 97 94 90 87 91 72 76 67 56 65 74 78 81 75 70 71 72 82 88 90 90 85 77 67 62 72 77 68 56 71 70 66 69 72 73
67 66 70 66 65 79 97 94 92 98 96 99 93 89 76 67 75 56 55 60 70 68 75 73 62 67 78 82 82 90 74 74 77 86 93 66 92 71 79 74 70 74 73 75 75
58 63 64 68 86 94 92 92 92 89 91 93 87 68 69 68 65 59 56 62 76 70 66 56 68 80 87 79 75 76 71 85 90 96 99 81 98 75 77 79 90 84 73 78 79
50 56 52 57 66 73 75 73 68 79 96 96 79 83 70 72 75 67 64 58 64 73 74 72 60 70 68 66 74 68 85 86 91 82 98 79 91 83 98 100 94 83 87 90 86
42 52 60 65 68 66 64 69 84 93 91 84 86 83 72 76 74 72 74 72 73 80 86 75 78 70 67 80 74 89 94 96 85 97 90 84 100 94 96 94 94 97 89 88 86
43 42 56 64 64 65 65 78 88 82 86 80 84 77 78 68 64 66 72 75 74 79 92 95 76 77 80 79 70 83 87 96 97 92 88 88 95 94 80 86 84 83 87 85 89
44 40 52 59 63 68 82 91 95 78 84 81 79 71 76 71 67 68 70 74 64 80 83 77 87 70 83 72 71 94 99 85 100 91 96 90 96 92 77 92 92 91 86 89 92
46 43 50 46 56 59 84 91 96 82 81 75 70 60 69 67 64 74 73 64 72 73 76 84 89 68 76 78 79 91 86 100 99 98 92 86 97 98 98 99 97 95 94 88 89
46 64 42 42 46 85 96 97 86 75 74 79 74 56 66 90 88 95 87 71 76 83 81 91 96 78 85 90 98 98 100 100 99 99 94 92 93 99 100 98 97 91 84 83 85
60 78 40 44 86 93 96 86 78 75 71 71 75 60 70 89 84 94 95 80 74 77 87 84 90 98 82 66 73 87 94 92 95 96 92 93 98 86 87 91 85 83 75 70 70
77 73 42 46 86 94 75 74 76 76 76 72 71 67 58 72 75 84 84 66 77 83 85 80 91 96 62 61 60 73 76 77 73 82 88 85 95 82 78 81 76 70 72 72 72
80 72 82 93 87 79 83 79 75 68 71 70 74 68 66 72 69 73 74 61 75 78 74 75 82 80 88 70 71 76 69 72 80 95 82 83 96 96 85 79 68 72 75 76 76
90 88 84 86 84 81 77 76 80 80 72 72 67 80 80 77 70 78 75 72 63 61 73 69 82 83 77 72 67 71 68 77 85 75 74 77 95 78 73 69 73 72 74 76 78
81 88 89 89 85 69 74 78 80 76 77 71 72 77 70 74 74 78 77 74 69 68 64 72 82 75 73 59 65 71 61 72 74 80 82 83 81 64 65 69 74 74 77 78 80
90 74 69 85 82 73 75 78 75 78 64 70 74 78 68 65 71 73 73 73 71 75 75 74 81 85 77 68 64 57 57 67 67 68 76 80 64 70 71 74 73 76 79 78 79

GFSSW_925_rhum_120.txt.gz
RH
92 91 77 65 98 87 86 87 89 86 86 73 83 100 100 94 95 89 55 49 57 61 46 41 37 37 34 42 42 40 19 20 21 27 30 33 30 30 29 28 23 20 20 18 23
82 87 94 93 99 97 92 86 82 87 79 76 77 92 97 94 84 66 64 69 70 59 38 34 32 30 33 41 41 27 22 21 33 36 33 36 35 32 26 24 22 22 19 20 20
88 80 80 93 79 99 99 91 81 84 82 77 63 89 99 87 55 56 79 74 61 51 42 38 36 32 37 37 42 39 26 33 38 40 44 39 36 31 28 27 20 17 14 15 22
93 91 77 83 85 98 83 93 87 90 81 74 96 88 100 86 87 63 81 73 68 39 41 37 32 35 36 36 43 38 45 43 42 45 45 38 35 34 31 23 17 19 21 23 25
86 88 91 94 77 87 82 78 86 85 85 79 89 98 80 86 95 86 83 80 52 45 38 34 32 34 36 41 41 33 42 47 43 46 44 39 40 36 33 26 23 24 28 30 31
87 93 91 94 88 82 88 78 86 91 87 69 90 89 88 90 96 75 60 50 49 45 45 39 35 34 42 45 37 45 48 46 45 44 46 47 35 46 25 28 30 31 33 30 31
92 86 89 96 84 95 93 72 83 86 92 97 99 85 79 97 97 85 56 53 51 47 47 47 44 38 43 52 52 51 45 42 46 49 46 52 43 48 30 29 34 29 27 28 30
97 91 94 82 87 78 86 88 86 70 92 79 76 71 98 100 95 71 56 56 56 56 53 53 47 48 48 46 46 47 43 35 40 46 50 48 28 28 28 34 32 27 28 31 30
93 90 94 93 76 90 70 74 69 84 94 74 75 81 99 96 86 62 51 53 58 56 53 49 46 51 50 46 42 41 38 53 42 46 49 54 40 33 31 30 33 30 29 30 32
92 82 90 96 100 91 92 89 88 79 72 61 69 73 90 92 81 72 66 55 51 50 49 50 55 55 49 48 37 38 44 41 43 40 45 46 47 37 35 36 35 33 33 34 37
79 86 85 85 82 80 69 69 54 67 76 76 77 88 83 86 69 61 59 48 49 51 59 61 62 75 51 49 53 50 51 49 40 39 51 47 48 41 35 37 37 37 40 40 44
75 80 95 66 69 72 74 81 97 80 96 81 80 86 92 77 73 54 52 54 56 68 57 55 63 54 55 58 60 62 56 44 43 46 53 47 47 41 39 40 45 49 46 47 48
80 67 80 73 68 85 98 99 97 89 95 94 87 87 93 71 73 59 51 56 56 61 53 54 60 56 56 60 63 55 54 51 59 53 47 53 52 43 40 46 47 44 48 50 53
70 67 60 66 74 84 94 87 85 86 90 100 93 87 79 68 63 53 53 52 55 56 55 51 54 59 62 64 61 60 51 58 65 71 78 55 84 51 54 51 58 60 59 58 65
57 63 57 63 78 79 76 76 80 82 84 96 87 62 52 62 56 55 56 48 60 61 55 57 61 67 69 61 58 53 55 59 64 73 92 66 97 56 61 79 92 80 72 80 69
55 53 52 57 64 72 74 75 72 87 92 94 65 66 60 59 61 53 52 48 56 57 59 53 52 57 50 51 58 50 61 63 70 83 94 63 81 79 94 96 95 85 83 82 82
51 49 57 61 64 71 73 66 90 83 79 69 69 62 57 57 58 58 57 46 62 77 75 58 61 58 54 61 62 69 79 82 82 92 74 66 92 92 79 84 94 93 88 84 86
40 42 54 66 64 64 74 59 77 69 75 70 71 64 59 52 49 55 55 58 56 60 70 76 69 62 62 62 62 64 71 88 86 72 69 66 88 100 67 81 93 88 87 82 82
33 38 51 60 59 60 54 89 81 70 68 66 64 53 62 60 54 57 56 58 58 57 70 70 75 58 66 60 65 91 96 80 100 83 89 72 99 77 72 93 94 90 87 87 87
38 47 57 48 53 61 69 89 79 71 69 67 53 51 54 56 54 58 63 60 66 64 55 67 86 57 63 70 72 91 85 100 99 91 80 69 89 99 100 99 95 90 86 79 86
46 42 43 43 54 60 97 94 76 67 68 69 54 56 66 75 69 72 69 59 66 73 63 76 91 69 75 82 86 96 99 96 96 96 76 69 83 98 100 95 92 68 65 65 76
60 69 39 42 77 79 82 74 74 67 65 65 63 54 66 72 70 77 74 64 58 66 81 72 78 89 67 57 60 71 80 69 81 88 78 72 79 76 71 78 78 73 61 59 62
66 65 42 46 79 77 67 68 66 65 67 66 64 59 52 67 70 70 69 60 62 70 70 66 82 84 56 59 60 70 65 65 60 69 79 71 71 62 63 69 67 60 58 59 57
52 73 66 71 66 59 68 70 66 64 64 63 62 59 58 61 60 62 59 58 66 66 72 68 71 67 61 52 57 64 55 54 63 82 62 56 78 70 62 61 57 58 59 61 59
65 73 75 73 68 64 64 66 65 64 62 59 58 64 65 57 57 56 61 57 60 59 67 69 81 76 60 52 54 59 54 53 78 64 68 51 63 58 54 49 48 53 60 64 63
56 57 64 69 67 61 66 62 64 67 64 59 57 61 60 57 53 55 62 59 54 56 58 61 77 67 61 51 59 61 47 49 58 58 60 57 57 42 40 43 48 52 58 63 61
88 72 46 79 69 57 50 59 62 68 60 61 60 64 58 54 53 52 53 54 58 62 60 62 67 70 65 48 48 46 38 44 52 53 49 59 43 41 48 50 47 49 54 57 56

GFSSW_925_rhum_123.txt.gz
RH
91 86 86 93 99 89 99 82 91 90 81 66 78 82 99 96 86 78 43 44 52 58 40 34 30 26 27 34 34 28 20 20 16 19 23 23 22 23 22 22 17 14 13 14 19
90 89 91 99 86 94 98 85 90 88 87 58 88 90 100 92 73 50 61 68 65 46 31 26 26 23 25 31 29 22 21 17 22 25 23 26 26 24 21 17 17 16 14 15 15
86 93 95 97 94 89 99 94 89 93 73 78 79 79 99 83 53 53 72 75 63 42 29 24 23 22 28 26 28 25 25 24 26 30 32 27 26 22 23 21 15 15 13 11 13
93 88 89 78 83 83 100 98 88 87 80 88 79 99 91 87 92 70 85 72 57 40 31 27 24 25 27 28 28 29 31 30 32 34 35 29 24 25 22 20 14 15 15 17 19
83 89 91 81 74 86 96 92 91 84 80 84 99 99 84 81 94 85 87 77 44 36 29 24 24 25 26 28 28 24 29 34 31 33 32 29 30 27 25 19 17 17 18 21 23
86 90 93 93 79 82 77 84 93 90 79 81 99 93 83 92 100 82 78 56 42 38 33 27 26 23 28 30 28 28 33 31 32 32 33 36 30 28 21 20 21 22 23 23 23
89 92 89 91 76 90 78 91 92 96 94 96 80 76 80 100 97 80 53 48 44 37 35 32 27 26 28 36 35 34 35 33 32 34 35 40 31 31 21 20 23 22 20 21 21
90 86 90 93 84 87 89 93 68 87 86 86 78 71 96 100 77 55 47 46 45 44 44 41 35 36 35 34 35 35 33 33 32 38 40 41 26 19 21 22 22 19 18 18 19
94 92 79 94 66 86 87 71 88 76 74 70 70 69 97 93 86 59 43 44 46 46 42 40 38 42 39 37 35 33 36 43 33 35 36 44 34 21 22 22 22 21 20 21 22
94 89 81 95 84 80 86 77 68 64 67 58 68 67 91 92 91 55 47 43 43 43 41 40 43 41 34 46 40 26 34 28 30 33 38 38 38 28 24 24 26 24 24 24 27
94 78 74 71 70 73 74 68 54 80 77 89 86 88 86 90 76 54 44 40 38 40 46 45 58 77 37 37 37 32 32 30 26 26 40 36 35 31 26 26 28 28 32 33 35
83 83 74 61 63 69 68 69 83 76 96 82 80 81 85 83 73 47 44 42 44 53 43 49 58 46 44 46 45 43 36 31 30 38 42 41 42 34 32 34 37 40 39 41 41
90 72 73 78 69 80 84 94 87 71 96 93 87 88 91 66 61 56 43 44 42 44 37 50 47 45 44 46 45 38 38 39 46 44 36 45 42 38 35 37 41 50 47 47 50
68 65 66 67 61 76 80 90 86 88 80 98 85 80 66 59 56 47 47 45 43 44 38 44 48 46 47 46 45 43 42 46 52 59 73 50 80 46 41 43 48 58 59 69 71
51 55 59 57 67 60 78 81 83 74 78 86 73 54 48 53 49 47 45 38 46 44 46 49 51 55 54 50 48 47 46 50 54 62 88 53 87 55 54 60 58 66 71 74 73
43 51 55 63 67 79 66 77 67 89 90 91 54 54 49 46 48 44 42 37 44 42 41 42 43 47 44 40 46 44 53 50 58 68 86 52 71 66 86 72 70 81 83 78 73
41 43 58 68 60 70 74 62 89 83 66 60 50 41 37 42 40 42 44 43 55 83 62 52 52 46 47 54 53 58 57 74 79 84 69 55 72 78 67 65 91 95 84 83 78
31 43 58 71 78 84 68 50 81 59 56 52 50 43 44 43 44 49 50 51 49 48 54 65 78 54 52 54 57 55 58 82 81 73 69 50 82 85 61 74 79 78 79 79 76
32 55 55 67 59 84 49 88 70 54 53 48 52 40 52 49 47 48 48 50 50 49 61 57 67 49 52 50 55 83 79 69 100 68 82 62 99 64 62 68 68 67 63 67 71
49 48 51 47 54 70 62 69 68 56 53 53 43 41 44 46 46 47 51 50 56 55 46 58 76 50 57 61 62 75 86 98 100 90 84 71 77 98 100 92 68 68 60 57 61
51 32 49 39 59 48 95 76 63 56 58 57 48 49 51 54 52 54 54 51 50 58 52 63 79 67 66 76 72 97 97 98 89 73 85 65 71 94 95 79 71 62 58 55 58
50 55 38 46 73 63 73 60 64 59 56 55 53 47 54 55 55 60 62 56 50 58 67 62 67 82 62 47 50 55 64 72 98 97 82 76 76 58 60 62 66 66 51 50 50
41 43 50 55 72 65 59 60 57 57 56 55 53 50 47 55 59 56 56 52 53 60 60 58 70 78 61 52 50 64 54 56 56 65 78 85 67 53 53 60 58 57 48 49 49
39 66 55 45 47 45 58 59 58 58 54 52 51 50 51 51 49 51 50 51 55 58 71 64 64 66 68 48 48 55 48 50 56 82 65 54 44 51 52 53 47 46 46 48 51
47 51 57 66 48 46 51 51 53 55 54 50 50 50 48 47 45 44 44 44 50 64 59 62 76 75 59 49 44 46 48 45 61 62 63 44 44 38 41 44 40 39 44 48 50
42 43 48 49 52 51 57 51 48 52 52 48 51 45 45 45 36 39 45 43 39 51 51 54 72 57 59 34 44 52 45 45 43 42 52 50 49 33 31 33 35 38 43 49 50
64 53 46 64 52 47 36 40 47 52 49 49 46 48 46 43 42 42 42 41 43 46 48 52 61 60 61 38 43 37 26 32 35 37 44 52 38 28 36 36 36 38 40 45 46

GFSSW_925_rhum_126.txt.gz
RH
88 88 86 94 94 97 99 99 89 93 88 84 94 89 93 92 78 59 54 59 51 35 37 31 26 25 30 40 35 30 38 30 19 19 30 23 22 23 21 24 19 15 14 17 18
89 84 93 78 91 99 81 99 90 86 78 94 99 85 95 81 74 56 65 66 62 36 35 28 26 25 30 34 34 32 34 33 27 30 30 27 26 25 23 19 19 17 15 14 14
81 84 90 93 92 94 98 94 88 85 88 84 97 89 97 76 62 62 75 72 59 39 38 23 22 23 30 32 28 27 37 26 31 38 34 29 26 20 24 26 19 18 18 18 17
82 85 84 92 99 97 94 94 88 81 85 78 95 93 99 83 94 84 93 67 44 36 28 23 25 29 35 34 28 31 30 31 34 39 34 31 26 26 25 26 21 20 20 21 24
91 90 88 93 89 100 94 90 84 81 92 93 99 91 88 90 98 83 90 63 41 33 27 26 28 26 31 30 28 26 33 32 30 33 34 30 33 31 29 24 21 19 21 24 26
90 90 91 84 99 98 93 91 90 81 94 96 77 90 85 93 97 76 77 50 37 32 28 24 25 24 29 30 30 28 32 30 30 32 31 36 36 29 27 22 21 22 25 26 28
90 82 92 74 86 91 91 95 95 92 96 93 74 70 87 100 93 74 53 44 39 34 34 32 28 28 29 34 32 32 35 38 37 33 36 42 44 39 29 22 22 23 24 26 28
93 91 89 72 87 93 92 92 86 86 86 79 73 64 99 94 84 62 45 43 43 41 40 36 33 38 37 34 32 36 31 40 40 40 45 40 39 23 23 22 25 23 22 22 23
96 95 91 87 82 75 69 71 69 71 74 66 67 73 98 82 77 62 51 42 42 40 36 36 36 42 37 42 42 36 57 45 41 35 36 45 48 32 30 27 27 26 26 27 28
87 75 87 90 76 73 63 65 69 72 58 61 66 72 84 88 86 57 42 40 40 44 44 40 45 46 40 53 69 40 37 32 34 44 42 48 50 37 30 29 30 29 28 34 38
94 69 66 67 68 70 73 69 60 80 84 93 86 85 86 81 64 48 40 36 37 41 52 46 81 91 41 46 40 35 31 33 29 35 41 44 44 39 34 35 36 41 44 45 49
75 82 81 69 65 62 66 68 74 78 96 81 77 85 89 85 56 46 42 42 44 58 41 56 70 48 44 44 44 40 37 35 34 38 43 49 50 40 37 36 44 60 61 63 71
65 69 76 74 78 74 84 83 76 70 94 92 88 88 85 75 57 54 44 44 42 44 45 63 50 42 41 43 41 41 40 46 49 48 45 55 64 43 40 38 49 52 59 63 69
53 60 66 60 68 71 76 90 89 84 93 93 71 66 64 54 55 43 45 47 42 44 44 51 44 42 42 44 42 48 43 45 52 69 91 59 94 56 43 45 47 61 71 70 70
45 50 54 66 69 61 74 74 76 80 92 75 63 51 53 49 49 47 41 40 46 41 49 53 50 51 53 49 46 53 48 54 56 68 74 66 93 73 60 63 64 74 78 76 75
41 46 48 62 60 72 75 75 71 95 96 90 47 50 42 40 40 40 39 34 42 39 38 47 43 48 48 40 43 47 60 59 59 61 89 70 84 85 90 73 76 76 79 75 74
35 43 56 62 67 69 58 66 95 91 59 59 49 34 36 36 37 42 44 47 64 90 65 54 52 45 46 58 52 59 64 84 95 83 90 66 84 82 71 72 79 84 79 76 73
30 50 58 62 57 60 72 73 85 55 56 43 44 41 45 43 47 48 51 59 49 49 60 82 82 58 55 57 56 53 56 79 86 89 90 58 90 83 62 75 77 67 74 77 70
36 50 56 57 56 64 74 87 76 56 44 42 50 41 52 47 50 50 49 52 51 50 62 66 68 47 52 48 56 74 82 75 95 83 83 83 94 80 64 70 65 67 66 66 69
51 49 53 47 58 77 83 68 69 49 46 49 46 43 43 45 48 48 50 49 54 52 47 54 66 51 62 58 60 76 83 91 98 95 92 82 86 88 99 80 70 69 66 64 64
58 55 56 42 72 68 96 74 59 51 53 59 47 45 48 52 53 56 55 53 48 56 52 57 70 66 65 78 78 92 88 92 89 88 98 92 83 98 94 84 77 68 64 60 61
54 80 46 48 90 72 90 59 62 57 54 53 55 46 51 51 51 55 56 54 48 56 63 66 66 82 69 53 52 66 76 80 95 99 99 99 88 64 73 72 67 68 66 49 50
56 49 44 48 91 76 60 60 56 58 54 55 52 49 44 53 62 53 55 55 54 59 67 60 69 92 69 58 51 62 58 61 65 82 92 92 87 62 62 64 68 68 62 50 50
60 84 82 53 50 52 60 58 58 58 53 50 49 49 49 51 49 54 48 55 53 57 67 66 64 76 90 64 59 63 56 57 66 93 75 74 64 54 65 64 63 63 54 50 54
58 63 61 88 54 46 52 50 52 58 57 49 50 51 47 49 44 47 41 50 56 70 61 68 81 77 74 63 60 60 56 52 69 66 78 63 58 48 44 56 57 52 49 50 53
67 56 56 52 51 51 59 55 50 48 51 50 58 41 44 50 42 48 44 41 42 62 56 61 86 70 75 55 53 61 52 50 48 50 58 58 61 42 39 39 48 45 47 52 55
55 48 59 66 54 50 47 40 46 51 48 48 52 51 49 50 55 50 50 49 48 50 60 59 78 79 84 62 64 61 42 45 47 45 47 56 43 40 39 39 44 43 46 50 53